GW4808 Weather Reports


time (UTC)temp
F
wind
direction
speed
knots
gust
knots
rain 1hr
in
rain 24hr
in
rain mn
in
humidity
%
barometer
mb
20260508214305 57 253 1.7 2.6 0.00 0.00 0.00 57 1019.5
20260508213705 56 238 2.6 2.6 0.00 0.00 0.00 65 1019.5
20260508213105 55 237 2.6 4.3 0.00 0.00 0.00 62 1019.5
20260508211905 52 255 2.6 4.3 0.00 0.00 0.00 65 1019.4
20260508211305 52 234 1.7 4.3 0.00 0.00 0.00 64 1019.4
20260508210704 51 233 1.7 2.6 0.00 0.00 0.00 63 1019.2
20260508205504 52 215 1.7 4.3 0.00 0.00 0.00 61 1019.0
20260508204904 52 217 1.7 2.6 0.00 0.00 0.00 59 1019.0
20260508204304 51 197 1.7 2.6 0.00 0.00 0.00 60 1019.0
20260508203704 51 182 1.7 2.6 0.00 0.00 0.00 57 1019.0
20260508203104 52 171 0.9 1.7 0.00 0.00 0.00 60 1019.0
20260508201904 51 201 2.6 4.3 0.00 0.00 0.00 60 1018.6
20260508201305 51 186 2.6 4.3 0.00 0.00 0.00 61 1018.6
20260508200104 50 211 2.6 5.2 0.00 0.00 0.00 64 1018.5
20260508195504 50 216 2.6 5.2 0.00 0.00 0.00 62 1018.5
20260508194304 50 202 1.7 2.6 0.00 0.00 0.00 61 1018.1
20260508193704 50 211 1.7 2.6 0.00 0.00 0.00 60 1018.0
20260508193104 50 240 1.7 2.6 0.00 0.00 0.00 59 1018.0
20260508191904 51 190 1.7 2.6 0.00 0.00 0.00 57 1018.0
20260508190704 51 240 2.6 2.6 0.00 0.00 0.00 57 1018.0
20260508190104 51 238 2.6 3.5 0.00 0.00 0.00 56 1018.0
20260508184904 50 242 2.6 5.2 0.00 0.00 0.00 56 1017.8
20260508184305 50 219 2.6 5.2 0.00 0.00 0.00 56 1017.9
20260508183104 50 197 1.7 2.6 0.00 0.00 0.00 57 1017.7
20260508181904 50 200 1.7 3.5 0.00 0.00 0.00 58 1017.5
20260508181305 51 195 1.7 3.5 0.00 0.00 0.00 56 1017.5
20260508180705 51 188 1.7 2.6 0.00 0.00 0.00 58 1017.4
20260508180104 51 180 1.7 2.6 0.00 0.00 0.00 57 1017.4
20260508175504 51 219 1.7 2.6 0.00 0.00 0.00 59 1017.4
20260508174904 51 258 1.7 2.6 0.00 0.00 0.00 58 1017.4
20260508173704 51 248 1.7 2.6 0.00 0.00 0.00 61 1017.2
20260508171904 51 207 2.6 2.6 0.00 0.00 0.00 56 1017.5
20260508170704 51 224 2.6 3.5 0.00 0.00 0.00 56 1017.5
20260508170104 51 243 1.7 3.5 0.00 0.00 0.00 55 1017.6
20260508165504 51 257 1.7 2.6 0.00 0.00 0.00 56 1017.8
20260508164904 51 230 1.7 2.6 0.00 0.00 0.00 57 1017.9
20260508163704 51 192 1.7 2.6 0.00 0.00 0.00 58 1017.6
20260508163104 51 183 0.9 2.6 0.00 0.00 0.00 56 1017.6
20260508162505 52 219 0.9 1.7 0.00 0.00 0.00 55 1017.7
20260508161905 52 260 1.7 2.6 0.00 0.00 0.00 54 1017.8
20260508161305 52 255 2.6 3.5 0.00 0.00 0.00 55 1017.7
20260508160105 53 226 2.6 3.5 0.00 0.00 0.00 57 1017.8
20260508155505 53 248 2.6 2.6 0.00 0.00 0.00 55 1017.8
20260508154305 53 196 1.7 2.6 0.00 0.00 0.00 59 1017.9
20260508153705 53 184 1.7 2.6 0.00 0.00 0.00 57 1018.0
20260508152505 53 227 2.6 4.3 0.00 0.00 0.00 55 1017.9
20260508151905 53 243 0.9 2.6 0.00 0.00 0.00 58 1018.0
20260508150705 53 258 2.6 3.5 0.00 0.00 0.00 55 1017.8
20260508145505 53 239 2.6 3.5 0.00 0.00 0.00 58 1017.9
20260508144905 53 240 1.7 2.6 0.00 0.00 0.00 57 1018.1
20260508144305 54 227 1.7 2.6 0.00 0.00 0.00 55 1018.1
20260508143705 54 233 1.7 2.6 0.00 0.00 0.00 55 1018.1
20260508142505 54 200 1.7 2.6 0.00 0.00 0.00 55 1018.2
20260508140105 54 208 1.7 1.7 0.00 0.00 0.00 52 1018.3
20260508135504 54 221 1.7 1.7 0.00 0.00 0.00 54 1018.3
20260508134304 54 260 1.7 2.6 0.00 0.00 0.00 62 1018.4
20260508133704 54 229 1.7 2.6 0.00 0.00 0.00 66 1018.5
20260508133104 55 243 0.9 2.6 0.00 0.00 0.00 65 1018.5
20260508132505 55 266 0.9 2.6 0.00 0.00 0.00 64 1018.4
20260508131904 55 262 0.9 1.7 0.00 0.00 0.00 60 1018.5
20260508131304 55 144 0.9 3.5 0.00 0.00 0.00 60 1018.5
20260508130705 55 125 0.9 3.5 0.00 0.00 0.00 58 1018.6
20260508130105 55 205 0.9 1.7 0.00 0.00 0.00 56 1018.5
20260508125505 55 175 1.7 2.6 0.00 0.00 0.00 60 1018.5
20260508124905 56 132 1.7 3.5 0.00 0.00 0.00 58 1018.5
20260508124304 56 109 2.6 3.5 0.00 0.00 0.00 56 1018.5
20260508123705 56 134 1.7 3.5 0.00 0.00 0.00 53 1018.5
20260508121305 56 171 1.7 3.5 0.00 0.00 0.00 53 1018.5
20260508120705 56 181 1.7 2.6 0.00 0.00 0.00 54 1018.5
20260508120104 57 162 1.7 2.6 0.00 0.00 0.00 58 1018.5
20260508115504 57 173 1.7 2.6 0.00 0.00 0.00 57 1018.5
20260508114904 57 175 1.7 2.6 0.00 0.00 0.00 52 1018.8
20260508114304 57 176 1.7 2.6 0.00 0.00 0.00 63 1018.8
20260508113105 57 157 1.7 2.6 0.00 0.00 0.00 74 1018.9
20260508112504 57 164 1.7 2.6 0.00 0.00 0.00 76 1018.9
20260508111905 57 155 1.7 2.6 0.00 0.00 0.00 77 1019.0
20260508111305 57 141 1.7 2.6 0.00 0.00 0.00 76 1019.0
20260508105504 57 153 1.7 2.6 0.00 0.00 0.00 78 1018.8
20260508104904 57 151 1.7 2.6 0.00 0.00 0.00 78 1018.6
20260508104304 57 140 1.7 2.6 0.00 0.00 0.00 78 1018.6
20260508103704 57 128 1.7 2.6 0.00 0.00 0.00 79 1018.7
20260508103105 57 145 1.7 2.6 0.00 0.00 0.00 82 1018.6
20260508102505 58 163 1.7 3.5 0.00 0.00 0.00 80 1018.5
20260508101905 58 163 1.7 3.5 0.00 0.00 0.00 80 1018.3
20260508101304 58 159 0.9 2.6 0.00 0.00 0.00 80 1018.3
20260508100104 58 114 1.7 2.6 0.00 0.00 0.00 80 1018.2
20260508095504 59 152 0.9 2.6 0.00 0.00 0.00 79 1018.2
20260508094305 59 110 1.7 3.5 0.00 0.00 0.00 79 1018.0
20260508093704 59 125 3.5 5.2 0.00 0.00 0.00 79 1018.0
20260508093104 60 146 2.6 5.2 0.00 0.00 0.00 76 1017.9
20260508092504 60 146 2.6 3.5 0.00 0.00 0.00 76 1017.8
20260508091904 60 143 2.6 3.5 0.00 0.00 0.00 75 1017.8
20260508090705 61 131 2.6 3.5 0.00 0.00 0.00 74 1017.7
20260508090105 62 131 2.6 3.5 0.00 0.00 0.00 70 1017.5
20260508085504 62 128 2.6 5.2 0.00 0.00 0.00 71 1017.4
20260508084904 62 126 2.6 5.2 0.00 0.00 0.00 71 1017.3
20260508084305 63 122 3.5 4.3 0.00 0.00 0.00 70 1017.4
20260508083705 64 122 3.5 7.0 0.00 0.00 0.00 67 1017.3
20260508083105 64 117 4.3 7.0 0.00 0.00 0.00 66 1017.2
20260508081304 66 133 3.5 6.1 0.00 0.00 0.00 61 1016.9
20260508080704 68 130 3.5 6.1 0.00 0.00 0.00 56 1016.8
20260508080105 69 131 4.3 7.8 0.00 0.00 0.00 54 1016.6
20260508075505 70 128 4.3 6.1 0.00 0.00 0.00 53 1016.5
20260508074904 71 127 4.3 7.0 0.00 0.00 0.00 52 1016.5
20260508074304 71 124 4.3 7.0 0.00 0.00 0.00 52 1016.5
20260508073704 71 121 4.3 7.0 0.00 0.00 0.00 52 1016.3
20260508073105 72 114 4.3 7.8 0.00 0.00 0.00 50 1016.3
20260508072505 73 108 6.1 8.7 0.00 0.00 0.00 49 1016.2
20260508070704 73 120 4.3 7.8 0.00 0.00 0.00 51 1015.9
20260508070104 74 114 4.3 6.1 0.00 0.00 0.00 50 1015.9
20260508065505 75 115 5.2 7.0 0.00 0.00 0.00 49 1015.8
20260508064905 76 110 6.1 8.7 0.00 0.00 0.00 47 1015.6
20260508063705 77 102 5.2 8.7 0.00 0.00 0.00 47 1015.5
20260508063105 77 106 4.3 7.0 0.00 0.00 0.00 46 1015.5
20260508062505 78 105 4.3 6.1 0.00 0.00 0.00 46 1015.3
20260508061905 79 102 4.3 6.1 0.00 0.00 0.00 45 1015.2
20260508061305 79 105 3.5 5.2 0.00 0.00 0.00 45 1015.2
20260508060705 80 97 3.5 5.2 0.00 0.00 0.00 44 1015.2
20260508060104 80 86 2.6 4.3 0.00 0.00 0.00 41 1015.0
20260508054305 81 202 2.6 5.2 0.00 0.00 0.00 42 1014.9
20260508053705 81 199 2.6 6.1 0.00 0.00 0.00 41 1015.0
20260508053105 81 215 2.6 7.0 0.00 0.00 0.00 40 1015.0
20260508052505 81 198 2.6 7.0 0.00 0.00 0.00 41 1014.9
20260508051905 81 174 2.6 4.3 0.00 0.00 0.00 41 1014.9
20260508051305 80 157 2.6 5.2 0.00 0.00 0.00 41 1014.9
20260508050705 80 152 3.5 5.2 0.00 0.00 0.00 41 1014.8
20260508044905 80 198 3.5 6.1 0.00 0.00 0.00 42 1014.8
20260508044304 82 174 2.6 6.1 0.00 0.00 0.00 40 1014.8
20260508043704 82 179 2.6 6.1 0.00 0.00 0.00 42 1015.0
20260508043104 81 208 2.6 6.1 0.00 0.00 0.00 42 1015.0
20260508042505 81 200 2.6 5.2 0.00 0.00 0.00 41 1015.1
20260508041904 81 210 3.5 5.2 0.00 0.00 0.00 42 1015.0
20260508040105 81 165 3.5 5.2 0.00 0.00 0.00 43 1015.2
20260508035505 81 181 2.6 5.2 0.00 0.00 0.00 43 1015.2
20260508034904 81 199 2.6 6.1 0.00 0.00 0.00 43 1015.3
20260508034305 81 197 3.5 6.1 0.00 0.00 0.00 42 1015.5
20260508033705 81 172 2.6 6.1 0.00 0.00 0.00 42 1015.6
20260508032505 81 188 2.6 5.2 0.00 0.00 0.00 43 1015.7
20260508031904 81 184 2.6 4.3 0.00 0.00 0.00 42 1015.7
20260508030705 80 176 2.6 5.2 0.00 0.00 0.00 43 1016.0
20260508030105 80 179 2.6 5.2 0.00 0.00 0.00 44 1016.1
20260508025505 80 193 3.5 6.1 0.00 0.00 0.00 44 1016.2
20260508024905 79 191 3.5 7.0 0.00 0.00 0.00 44 1016.2
20260508023104 79 211 3.5 6.1 0.00 0.00 0.00 43 1016.7
20260508022505 79 217 3.5 7.0 0.00 0.00 0.00 44 1016.7
20260508021905 78 195 4.3 7.0 0.00 0.00 0.00 44 1016.8
20260508021305 78 163 4.3 7.8 0.00 0.00 0.00 44 1016.9
20260508020704 78 157 4.3 8.7 0.00 0.00 0.00 45 1017.0
20260508020104 78 187 4.3 8.7 0.00 0.00 0.00 45 1017.2
20260508015504 78 210 3.5 6.1 0.00 0.00 0.00 46 1017.3
20260508012505 77 112 5.2 10.4 0.00 0.00 0.00 45 1017.8
20260508011905 78 114 4.3 10.4 0.00 0.00 0.00 46 1017.9
20260508011305 78 156 2.6 6.1 0.00 0.00 0.00 46 1018.0
20260508010705 78 137 3.5 6.1 0.00 0.00 0.00 42 1018.2
20260508005504 78 157 2.6 4.3 0.00 0.00 0.00 44 1018.3
20260508004904 77 215 3.5 4.3 0.00 0.00 0.00 46 1018.4
20260508004305 76 220 3.5 7.0 0.00 0.00 0.00 47 1018.3
20260508003705 75 209 3.5 7.0 0.00 0.00 0.00 48 1018.5
20260508003105 75 193 1.7 6.1 0.00 0.00 0.00 49 1018.4
20260508001905 74 196 3.5 5.2 0.00 0.00 0.00 48 1018.7
20260508001305 73 237 2.6 5.2 0.00 0.00 0.00 49 1018.6
20260508000105 73 198 2.6 5.2 0.00 0.00 0.00 50 1018.7
20260507235505 73 169 3.5 6.1 0.00 0.00 0.00 50 1018.5
20260507234905 75 138 5.2 9.6 0.00 0.00 0.00 48 1018.5
20260507234305 75 115 5.2 9.6 0.00 0.00 0.00 48 1018.5
20260507233705 74 145 2.6 6.1 0.00 0.00 0.00 49 1018.5
20260507233105 74 168 3.5 5.2 0.00 0.00 0.00 51 1018.6
20260507232504 74 245 2.6 4.3 0.00 0.00 0.00 51 1018.5
20260507231905 72 267 3.5 5.2 0.00 0.00 0.00 52 1018.6
20260507231305 71 261 3.5 5.2 0.00 0.00 0.00 54 1018.7
20260507230705 71 246 3.5 5.2 0.00 0.00 0.00 54 1018.5
20260507230105 70 243 3.5 6.1 0.00 0.00 0.00 55 1018.5
20260507225505 69 238 2.6 4.3 0.00 0.00 0.00 57 1018.4
20260507224905 67 232 3.5 5.2 0.00 0.00 0.00 59 1018.4
20260507224304 67 229 3.5 5.2 0.00 0.00 0.00 60 1018.3
20260507223705 66 246 3.5 6.1 0.00 0.00 0.00 62 1018.2
20260507223105 66 242 3.5 6.1 0.00 0.00 0.00 62 1018.2
20260507220705 65 234 3.5 7.8 0.00 0.00 0.00 63 1018.1
20260507220105 66 237 3.5 6.1 0.00 0.00 0.00 62 1018.2
20260507215504 66 233 3.5 6.1 0.00 0.00 0.00 62 1018.0
20260507214904 66 226 2.6 5.2 0.00 0.00 0.00 62 1017.8